Weather History for Idabel, OK

Change the Weather History Date:

Friday, November 9, 2012

  Actual Average (KDEQ) Record (KDEQ)
Temperature  
Mean Temperature 64 °F 55 °F  
Max Temperature 78 °F 68 °F 84 °F (2005)
Min Temperature 50 °F 42 °F 18 °F (1991)
Degree Days  
Heating Degree Days 1 10  
Month to date heating degree days 79  
Since 1 July heating degree days 212  
Cooling Degree Days 0 0  
Month to date cooling degree days 5  
Year to date cooling degree days 1939  
Growing Degree Days 14 (Base 50)    
Moisture  
Dew Point 50 °F    
Average Humidity 64    
Maximum Humidity 88    
Minimum Humidity 41    
Precipitation  
Precipitation 0.00 in 0.17 in 1.73 in (1940)
Month to date precipitation 1.52  
Year to date precipitation 41.24  
Snow  
Snow 0.00 in - - ()
Month to date snowfall  
Since 1 July snowfall  
Since 1 September snowfall  
Snow Depth -    
Sea Level Pressure  
Sea Level Pressure 30.05 in    
Wind  
Wind Speed 9 mph (SE)    
Max Wind Speed 20 mph    
Max Gust Speed 29 mph    
Visibility 10 miles    
Events      
T = Trace of Precipitation, MM = Missing Value Source: NWS Daily Summary

Daily Weather History Graph

Daily Weather History Graph

Search for Another Location

Airport:

Trip Planner

Search our weather history database for the weather conditions in past years. The results will help you decide how hot, cold, wet, or windy it might be!

Date:

Astronomy

Nov. 09, 2012 Rise Set
Actual Time 6:46 AM CST 5:19 PM CST
Civil Twilight 6:20 AM CST 5:45 PM CST
Nautical Twilight 5:50 AM CST 6:15 PM CST
Astronomical Twilight 5:20 AM CST 6:45 PM CST
Moon 1:59 AM CST (11/9) 2:22 PM CST (11/9)
Length of Visible Light 11h 25m
Length of Day
10h 33m
Waning Crescent, 23% of the Moon is Illuminated
Nov 9
Waning Crescent
Nov 13
New
Nov 20
First Quarter
Nov 28
Full
Dec 6
Last Quarter

Hourly Weather History & Observations

Time (CST) Temp. Dew Point Humidity Pressure Visibility Wind Dir Wind Speed Gust Speed Precip Events Conditions
12:15 AM 51.8 °F 41.0 °F 67% 30.07 in 10.0 mi East 4.6 mph - N/A   Clear
12:35 AM 51.8 °F 41.0 °F 67% 30.07 in 10.0 mi East 5.8 mph - N/A   Clear
12:55 AM 50.0 °F 41.0 °F 71% 30.07 in 10.0 mi ENE 4.6 mph - N/A   Clear
1:15 AM 50.0 °F 41.0 °F 71% 30.07 in 10.0 mi East 5.8 mph - N/A   Clear
1:35 AM 50.0 °F 41.0 °F 71% 30.06 in 10.0 mi East 4.6 mph - N/A   Clear
1:55 AM 50.0 °F 41.0 °F 71% 30.07 in 10.0 mi East 4.6 mph - N/A   Clear
2:15 AM 50.0 °F 42.8 °F 76% 30.07 in 10.0 mi East 5.8 mph - N/A   Clear
2:35 AM 50.0 °F 42.8 °F 76% 30.07 in 10.0 mi ESE 8.1 mph - N/A   Clear
2:55 AM 50.0 °F 42.8 °F 76% 30.07 in 10.0 mi ESE 6.9 mph - N/A   Clear
3:15 AM 51.8 °F 44.6 °F 76% 30.07 in 10.0 mi ESE 6.9 mph - N/A   Clear
3:35 AM 53.6 °F 46.4 °F 77% 30.07 in 10.0 mi ESE 6.9 mph - N/A   Clear
3:55 AM 51.8 °F 44.6 °F 76% 30.06 in 10.0 mi East 6.9 mph - N/A   Clear
4:15 AM 51.8 °F 44.6 °F 76% 30.07 in 10.0 mi ESE 6.9 mph - N/A   Clear
4:35 AM 50.0 °F 44.6 °F 82% 30.07 in 10.0 mi East 5.8 mph - N/A   Clear
4:55 AM 50.0 °F 44.6 °F 82% 30.08 in 10.0 mi East 3.5 mph - N/A   Clear
5:15 AM 50.0 °F 44.6 °F 82% 30.08 in 10.0 mi East 4.6 mph - N/A   Clear
5:35 AM 50.0 °F 44.6 °F 82% 30.09 in 10.0 mi East 4.6 mph - N/A   Mostly Cloudy
5:55 AM 50.0 °F 44.6 °F 82% 30.09 in 10.0 mi East 6.9 mph - N/A   Scattered Clouds
6:15 AM 50.0 °F 44.6 °F 82% 30.10 in 10.0 mi East 5.8 mph - N/A   Clear
6:35 AM 50.0 °F 44.6 °F 82% 30.10 in 10.0 mi East 4.6 mph - N/A   Mostly Cloudy
6:55 AM 50.0 °F 46.4 °F 87% 30.10 in 10.0 mi East 6.9 mph - N/A   Overcast
7:15 AM 50.0 °F 46.4 °F 87% 30.10 in 10.0 mi ESE 6.9 mph - N/A   Overcast
7:35 AM 51.8 °F 46.4 °F 82% 30.11 in 10.0 mi ESE 6.9 mph - N/A   Overcast
7:55 AM 53.6 °F 50.0 °F 88% 30.11 in 10.0 mi SE 9.2 mph - N/A   Mostly Cloudy
8:15 AM 55.4 °F 50.0 °F 82% 30.11 in 10.0 mi SE 9.2 mph - N/A   Scattered Clouds
8:35 AM 57.2 °F 51.8 °F 82% 30.11 in 10.0 mi SE 9.2 mph - N/A   Clear
8:55 AM 59.0 °F 51.8 °F 77% 30.10 in 10.0 mi SSE 12.7 mph 23.0 mph N/A   Scattered Clouds
9:15 AM 60.8 °F 51.8 °F 72% 30.11 in 10.0 mi South 11.5 mph - N/A   Scattered Clouds
9:35 AM 62.6 °F 53.6 °F 72% 30.11 in 10.0 mi SSE 8.1 mph - N/A   Clear
9:55 AM 64.4 °F 53.6 °F 68% 30.11 in 10.0 mi South 4.6 mph - N/A   Scattered Clouds
10:15 AM 68.0 °F 55.4 °F 64% 30.10 in 10.0 mi South 12.7 mph 17.3 mph N/A   Overcast
10:35 AM 69.8 °F 55.4 °F 60% 30.10 in 10.0 mi South 11.5 mph 17.3 mph N/A   Mostly Cloudy
10:55 AM 71.6 °F 55.4 °F 57% 30.09 in 10.0 mi South 15.0 mph 20.7 mph N/A   Mostly Cloudy
11:15 AM 71.6 °F 55.4 °F 57% 30.08 in 10.0 mi South 18.4 mph 21.9 mph N/A   Mostly Cloudy
11:35 AM 73.4 °F 57.2 °F 57% 30.07 in 10.0 mi South 16.1 mph - N/A   Mostly Cloudy
11:55 AM 73.4 °F 57.2 °F 57% 30.06 in 10.0 mi South 17.3 mph - N/A   Mostly Cloudy
12:15 PM 75.2 °F 57.2 °F 53% 30.05 in 10.0 mi South 16.1 mph 21.9 mph N/A   Mostly Cloudy
12:35 PM 77.0 °F 55.4 °F 47% 30.03 in 10.0 mi SSW 18.4 mph 26.5 mph N/A   Scattered Clouds
12:55 PM 77.0 °F 55.4 °F 47% 30.02 in 10.0 mi SSW 19.6 mph 25.3 mph N/A   Scattered Clouds
1:15 PM 77.0 °F 55.4 °F 47% 30.01 in 10.0 mi SSW 19.6 mph 25.3 mph N/A   Scattered Clouds
1:35 PM 78.8 °F 55.4 °F 44% 30.00 in 10.0 mi SSW 18.4 mph 26.5 mph N/A   Clear
1:55 PM 78.8 °F 55.4 °F 44% 29.99 in 10.0 mi SSW 16.1 mph - N/A   Clear
2:15 PM 78.8 °F 53.6 °F 42% 29.99 in 10.0 mi South 19.6 mph 23.0 mph N/A   Clear
2:35 PM 78.8 °F 53.6 °F 42% 29.98 in 10.0 mi South 18.4 mph 24.2 mph N/A   Clear
2:55 PM 78.8 °F 53.6 °F 42% 29.98 in 10.0 mi South 15.0 mph 24.2 mph N/A   Clear
3:15 PM 78.8 °F 53.6 °F 42% 29.98 in 10.0 mi South 17.3 mph 27.6 mph N/A   Clear
3:35 PM 78.8 °F 53.6 °F 42% 29.97 in 10.0 mi SSE 13.8 mph 19.6 mph N/A   Clear
3:55 PM 78.8 °F 53.6 °F 42% 29.98 in 10.0 mi South 16.1 mph 28.8 mph N/A   Clear
4:15 PM 77.0 °F 51.8 °F 41% 29.98 in 10.0 mi South 18.4 mph 23.0 mph N/A   Clear
4:35 PM 77.0 °F 53.6 °F 44% 29.98 in 10.0 mi South 18.4 mph - N/A   Clear
4:55 PM 75.2 °F 51.8 °F 44% 29.98 in 10.0 mi South 16.1 mph 21.9 mph N/A   Clear
5:15 PM 73.4 °F 51.8 °F 47% 29.98 in 10.0 mi South 13.8 mph - N/A   Clear
5:35 PM 71.6 °F 53.6 °F 53% 29.99 in 10.0 mi South 10.4 mph - N/A   Clear
5:55 PM 71.6 °F 53.6 °F 53% 29.99 in 10.0 mi SSE 11.5 mph - N/A   Clear
6:15 PM 71.6 °F 53.6 °F 53% 30.00 in 10.0 mi SSE 8.1 mph - N/A   Clear
6:35 PM 69.8 °F 53.6 °F 56% 30.00 in 10.0 mi SSE 10.4 mph - N/A   Clear
6:55 PM 69.8 °F 53.6 °F 56% 30.00 in 10.0 mi SSE 10.4 mph - N/A   Clear
7:15 PM 69.8 °F 51.8 °F 53% 30.01 in 10.0 mi SSE 12.7 mph - N/A   Clear
7:35 PM 69.8 °F 51.8 °F 53% 30.01 in 10.0 mi SSE 12.7 mph 18.4 mph N/A   Clear
7:55 PM 68.0 °F 51.8 °F 56% 30.01 in 10.0 mi SSE 10.4 mph - N/A   Clear
8:15 PM 68.0 °F 51.8 °F 56% 30.02 in 10.0 mi SSE 11.5 mph - N/A   Clear
8:35 PM 66.2 °F 51.8 °F 60% 30.02 in 10.0 mi SSE 9.2 mph - N/A   Clear
8:55 PM 66.2 °F 51.8 °F 60% 30.03 in 10.0 mi SSE 12.7 mph - N/A   Clear
9:15 PM 64.4 °F 51.8 °F 64% 30.02 in 10.0 mi SSE 9.2 mph - N/A   Clear
9:35 PM 64.4 °F 51.8 °F 64% 30.02 in 10.0 mi SSE 10.4 mph - N/A   Clear
9:55 PM 64.4 °F 51.8 °F 64% 30.03 in 10.0 mi SSE 10.4 mph - N/A   Clear
10:15 PM 64.4 °F 51.8 °F 64% 30.03 in 10.0 mi SSE 12.7 mph 17.3 mph N/A   Clear
10:35 PM 64.4 °F 51.8 °F 64% 30.03 in 10.0 mi SSE 10.4 mph - N/A   Clear
10:55 PM 64.4 °F 51.8 °F 64% 30.04 in 10.0 mi SSE 10.4 mph - N/A   Clear
11:15 PM 62.6 °F 51.8 °F 68% 30.04 in 10.0 mi SSE 10.4 mph - N/A   Clear
11:35 PM 62.6 °F 51.8 °F 68% 30.04 in 10.0 mi SSE 10.4 mph - N/A   Clear
11:55 PM 62.6 °F 51.8 °F 68% 30.03 in 10.0 mi SSE 9.2 mph - N/A   Clear